Flag for U.S.A. Weather past 2 weeks in Garland, Texas, U.S.A.

Now
80 °F

Clear.


Feels Like: 83 °F
Forecast: 71 / 83 °F
Wind: 8 mph from Southeast

Location: Mesquite Metro Airport

Current Time: Jul 30, 2014 at 10:36:27 PM

Latest Report: Jul 30, 2014 at 9:55 PM


Visibility: 10 mi

Pressure: 29.94 "Hg

Humidity: 72%

Dew point: 70 °F

Location of GarlandLocation

Historic Weather in Garland — Graph

°F

Garland temperature yesterday

Maximum temperature yesterday: 84 °F (at 10:50 AM)
Minimum temperature yesterday: 70 °F (at 6:50 AM)
Average temperature yesterday: 76 °F

Past Weeks' High & Low Weather Summary

 TemperatureHumidityPressure
High100 °F (Jul 27, 4:50 PM)100% (Jul 17, 12:50 PM)30.16 "Hg (Jul 17, 12:50 PM)
Low63 °F (Jul 20, 6:50 AM)29% (Jul 15, 7:50 PM)29.88 "Hg (Jul 16, 7:50 PM)
Average77 °F74%30.02 "Hg
* Reported Jul 15 7:50 PM — Jul 30 7:57 PM, Garland, Weather by CustomWeather, © 2014

Note: Actual official high and low records may vary slightly from our data, if they occured in-between our weather recording intervals... More about our weather records

Advertising

Garland weather history for previous 24 hours

 ConditionsComfort  
Time TempWeatherWind HumidityBarometerVisibility
7:57 PM
Jul 30
84 °FSunny.12 mph62%29.92 "Hg10 mi
6:53 PM88 °FSunny.9 mph55%29.92 "Hg10 mi
5:50 PM88 °FSunny.10 mph55%29.93 "Hg10 mi
4:50 PM86 °FSunny.8 mph59%29.96 "Hg10 mi
3:50 PM88 °FScattered clouds.10 mph55%29.99 "Hg10 mi
2:50 PM88 °FScattered clouds.7 mph55%30.01 "Hg10 mi
1:47 PM82 °FScattered clouds.7 mph66%30.04 "Hg10 mi
12:50 PM79 °FLight rain. Scattered clouds.6 mph84%30.05 "Hg10 mi
11:47 AM73 °FLight rain. Broken clouds.7 mph94%30.07 "Hg10 mi
10:47 AM73 °FRain. Cloudy.7 mph94%30.09 "Hg4 mi
9:47 AM73 °FLight rain. Overcast.No wind94%30.09 "Hg7 mi
8:50 AM73 °FRain. Cloudy.3 mph94%30.10 "Hg5 mi
7:50 AM75 °FOvercast.No wind83%30.07 "Hg10 mi
6:50 AM73 °FOvercast.6 mph89%30.06 "Hg10 mi
5:35 AM74 °FPassing clouds.7 mph79%30.04 "Hg10 mi
5:15 AM75 °FPassing clouds.7 mph78%30.04 "Hg10 mi
4:55 AM74 °FPassing clouds.6 mph78%30.04 "Hg10 mi
4:35 AM73 °FPartly cloudy.6 mph82%30.04 "Hg10 mi
3:55 AM71 °FPassing clouds.No wind87%30.04 "Hg10 mi
3:35 AM71 °FPassing clouds.No wind87%30.04 "Hg10 mi
3:15 AM71 °FClear.3 mph88%30.03 "Hg10 mi
2:55 AM71 °FClear.5 mph87%30.03 "Hg10 mi
2:35 AM71 °FClear.3 mph88%30.04 "Hg10 mi
2:15 AM71 °FClear.No wind90%30.04 "Hg10 mi
1:55 AM72 °FClear.3 mph87%30.04 "Hg10 mi
1:35 AM72 °FClear.No wind89%30.05 "Hg10 mi
1:15 AM71 °FClear.No wind90%30.06 "Hg10 mi
12:55 AM71 °FClear.No wind90%30.06 "Hg10 mi
12:35 AM71 °FClear.3 mph88%30.05 "Hg10 mi
12:15 AM72 °FClear.No wind86%30.06 "Hg10 mi
11:55 PM
Jul 29
73 °FClear.No wind85%30.07 "Hg10 mi
11:35 PM73 °FClear.3 mph87%30.07 "Hg10 mi
11:15 PM74 °FClear.3 mph84%30.06 "Hg10 mi
10:55 PM73 °FClear.No wind86%30.06 "Hg10 mi
10:35 PM76 °FClear.No wind76%30.07 "Hg10 mi
10:15 PM74 °FClear.No wind84%30.06 "Hg10 mi
Weather by CustomWeather, © 2014

See weather overviewHow to use our weather pages